QPF
0.00 0.00 0.00 0.00 0.00 0.00 0.00 0.00 0.00 0.00 0.00 0.00 0.00 0.00 0.00 0.00 0.00 0.00 0.00 0.00 0.00 0.00 0.00 0.00 0.00 0.00 0.00 0.00 0.00 0.00 0.00 0.00 0.00 0.00 0.00 0.00 0.00 0.00 0.00 0.00 0.00 0.00 0.00 0.00 0.00 0.00 0.00
0.00 0.00 0.00 0.00 0.00 0.00 0.00 0.00 0.00 0.00 0.00 0.00 0.00 0.00 0.00 0.00 0.00 0.00 0.00 0.00 0.00 0.00 0.00 0.00 0.00 0.00 0.00 0.00 0.00 0.00 0.00 0.00 0.00 0.00 0.00 0.00 0.00 0.00 0.00 0.00 0.00 0.00 0.00 0.00 0.00 0.00 0.00
0.01 0.01 0.00 0.00 0.00 0.00 0.00 0.00 0.00 0.00 0.00 0.00 0.00 0.00 0.00 0.00 0.00 0.00 0.00 0.00 0.00 0.00 0.00 0.00 0.00 0.00 0.00 0.00 0.00 0.00 0.00 0.00 0.00 0.00 0.00 0.00 0.00 0.00 0.00 0.00 0.00 0.00 0.00 0.00 0.00 0.00 0.00
0.00 0.01 0.01 0.01 0.00 0.00 0.00 0.00 0.00 0.00 0.00 0.00 0.00 0.00 0.00 0.00 0.00 0.00 0.00 0.00 0.00 0.00 0.00 0.00 0.00 0.00 0.00 0.00 0.00 0.00 0.00 0.00 0.00 0.00 0.00 0.00 0.00 0.00 0.00 0.00 0.00 0.00 0.00 0.00 0.00 0.00 0.00
0.00 0.00 0.00 0.00 0.01 0.01 0.01 0.00 0.00 0.00 0.00 0.00 0.00 0.00 0.00 0.00 0.00 0.00 0.00 0.00 0.00 0.00 0.00 0.00 0.00 0.00 0.00 0.00 0.00 0.00 0.00 0.00 0.00 0.00 0.00 0.00 0.00 0.00 0.00 0.00 0.00 0.00 0.00 0.00 0.00 0.00 0.00
0.01 0.00 0.00 0.00 0.00 0.01 0.01 0.01 0.01 0.01 0.00 0.00 0.00 0.00 0.00 0.00 0.00 0.00 0.00 0.00 0.00 0.00 0.00 0.00 0.00 0.00 0.00 0.00 0.00 0.00 0.00 0.00 0.00 0.00 0.00 0.00 0.00 0.00 0.00 0.00 0.00 0.00 0.00 0.00 0.00 0.00 0.00
0.00 0.00 0.00 0.00 0.00 0.00 0.01 0.01 0.01 0.01 0.00 0.00 0.00 0.00 0.00 0.00 0.00 0.00 0.00 0.00 0.00 0.00 0.00 0.00 0.00 0.00 0.00 0.00 0.00 0.00 0.00 0.00 0.00 0.00 0.00 0.00 0.00 0.00 0.00 0.00 0.00 0.00 0.00 0.00 0.00 0.00 0.00
0.00 0.00 0.00 0.00 0.00 0.00 0.00 0.00 0.01 0.00 0.00 0.00 0.00 0.00 0.00 0.00 0.00 0.00 0.00 0.00 0.00 0.00 0.00 0.00 0.00 0.00 0.00 0.00 0.00 0.00 0.00 0.00 0.00 0.00 0.00 0.00 0.00 0.00 0.00 0.00 0.00 0.00 0.00 0.00 0.00 0.00 0.00
0.00 0.00 0.00 0.00 0.00 0.00 0.00 0.00 0.00 0.00 0.00 0.00 0.00 0.00 0.00 0.00 0.00 0.00 0.00 0.00 0.00 0.00 0.00 0.00 0.00 0.00 0.00 0.00 0.00 0.00 0.00 0.00 0.00 0.00 0.00 0.00 0.00 0.00 0.00 0.00 0.00 0.00 0.00 0.00 0.00 0.00 0.00
0.00 0.00 0.00 0.00 0.00 0.00 0.00 0.00 0.00 0.00 0.00 0.00 0.00 0.00 0.00 0.00 0.00 0.00 0.00 0.00 0.00 0.00 0.00 0.00 0.00 0.00 0.00 0.00 0.00 0.00 0.00 0.00 0.00 0.00 0.00 0.00 0.00 0.00 0.00 0.00 0.00 0.00 0.00 0.00 0.00 0.00 0.00
0.00 0.00 0.00 0.00 0.00 0.00 0.00 0.00 0.00 0.00 0.00 0.00 0.00 0.00 0.00 0.00 0.00 0.00 0.00 0.00 0.00 0.00 0.00 0.00 0.00 0.00 0.00 0.00 0.00 0.00 0.00 0.00 0.00 0.00 0.00 0.00 0.00 0.00 0.00 0.00 0.00 0.00 0.00 0.00 0.00 0.00 0.00
0.00 0.00 0.00 0.00 0.00 0.00 0.00 0.00 0.00 0.00 0.00 0.00 0.00 0.00 0.00 0.00 0.00 0.00 0.00 0.00 0.00 0.00 0.00 0.00 0.00 0.00 0.00 0.00 0.00 0.00 0.00 0.00 0.00 0.00 0.00 0.00 0.00 0.00 0.00 0.00 0.00 0.00 0.00 0.00 0.00 0.00 0.00
0.00 0.00 0.00 0.00 0.00 0.00 0.00 0.00 0.00 0.00 0.00 0.00 0.00 0.00 0.00 0.00 0.00 0.00 0.00 0.00 0.00 0.00 0.00 0.00 0.00 0.00 0.00 0.00 0.00 0.00 0.00 0.00 0.00 0.00 0.00 0.00 0.00 0.00 0.00 0.00 0.00 0.00 0.00 0.00 0.00 0.00 0.00
0.00 0.00 0.00 0.00 0.00 0.00 0.00 0.00 0.00 0.00 0.00 0.00 0.00 0.00 0.00 0.00 0.00 0.00 0.00 0.00 0.00 0.00 0.00 0.00 0.00 0.00 0.00 0.00 0.00 0.00 0.00 0.00 0.00 0.00 0.00 0.00 0.00 0.00 0.00 0.00 0.00 0.00 0.00 0.00 0.00 0.00 0.00
0.00 0.00 0.00 0.00 0.00 0.00 0.00 0.00 0.00 0.00 0.00 0.00 0.00 0.00 0.00 0.00 0.00 0.00 0.00 0.00 0.00 0.00 0.00 0.00 0.00 0.00 0.00 0.00 0.00 0.00 0.00 0.00 0.00 0.00 0.00 0.00 0.00 0.00 0.00 0.00 0.00 0.00 0.00 0.00 0.00 0.00 0.00
0.00 0.00 0.00 0.00 0.00 0.00 0.00 0.00 0.00 0.00 0.00 0.00 0.00 0.00 0.00 0.00 0.00 0.00 0.00 0.00 0.00 0.00 0.00 0.00 0.00 0.00 0.00 0.00 0.00 0.00 0.00 0.00 0.00 0.00 0.00 0.00 0.00 0.00 0.00 0.00 0.00 0.00 0.00 0.00 0.00 0.00 0.00
0.00 0.00 0.00 0.00 0.00 0.00 0.00 0.00 0.00 0.00 0.00 0.00 0.00 0.00 0.00 0.00 0.00 0.00 0.00 0.00 0.00 0.00 0.00 0.00 0.00 0.00 0.00 0.00 0.00 0.00 0.00 0.00 0.00 0.00 0.00 0.00 0.00 0.00 0.00 0.00 0.00 0.00 0.00 0.00 0.00 0.00 0.00
0.00 0.00 0.00 0.00 0.00 0.00 0.00 0.00 0.00 0.00 0.00 0.00 0.00 0.00 0.00 0.00 0.00 0.00 0.00 0.00 0.00 0.00 0.00 0.00 0.00 0.00 0.00 0.00 0.00 0.00 0.00 0.00 0.00 0.00 0.00 0.00 0.00 0.00 0.00 0.00 0.00 0.00 0.00 0.00 0.00 0.00 0.00
0.00 0.00 0.00 0.00 0.00 0.00 0.00 0.00 0.00 0.00 0.00 0.00 0.00 0.00 0.00 0.00 0.00 0.00 0.00 0.00 0.00 0.00 0.00 0.00 0.00 0.00 0.00 0.00 0.00 0.00 0.00 0.00 0.00 0.00 0.00 0.00 0.00 0.00 0.00 0.00 0.00 0.00 0.00 0.00 0.00 0.00 0.00
0.00 0.00 0.00 0.00 0.00 0.00 0.00 0.00 0.00 0.00 0.00 0.00 0.00 0.00 0.00 0.00 0.00 0.00 0.00 0.00 0.00 0.00 0.00 0.00 0.00 0.00 0.00 0.00 0.00 0.00 0.00 0.00 0.00 0.00 0.00 0.00 0.00 0.00 0.00 0.00 0.00 0.00 0.00 0.00 0.00 0.00 0.00
0.00 0.00 0.00 0.00 0.00 0.00 0.00 0.00 0.00 0.00 0.00 0.00 0.00 0.00 0.00 0.00 0.00 0.00 0.00 0.00 0.00 0.00 0.00 0.00 0.00 0.00 0.00 0.00 0.00 0.00 0.00 0.00 0.00 0.00 0.00 0.00 0.00 0.00 0.00 0.00 0.00 0.00 0.00 0.00 0.00 0.00 0.00
0.00 0.00 0.00 0.00 0.00 0.00 0.00 0.00 0.00 0.00 0.00 0.00 0.00 0.00 0.00 0.00 0.00 0.00 0.00 0.00 0.00 0.00 0.00 0.00 0.00 0.00 0.00 0.00 0.00 0.00 0.00 0.00 0.00 0.00 0.00 0.00 0.00 0.00 0.00 0.00 0.00 0.00 0.00 0.00 0.00 0.00 0.00
0.00 0.00 0.00 0.00 0.00 0.00 0.00 0.00 0.00 0.00 0.00 0.00 0.00 0.00 0.00 0.00 0.00 0.00 0.00 0.00 0.00 0.00 0.00 0.00 0.00 0.00 0.00 0.00 0.00 0.00 0.00 0.00 0.00 0.00 0.00 0.00 0.00 0.01 0.01 0.00 0.00 0.00 0.00 0.00 0.00 0.00 0.00
0.00 0.00 0.00 0.00 0.00 0.00 0.00 0.00 0.00 0.00 0.00 0.00 0.00 0.00 0.00 0.00 0.00 0.00 0.00 0.00 0.00 0.00 0.00 0.00 0.00 0.00 0.00 0.00 0.00 0.00 0.00 0.00 0.00 0.00 0.00 0.00 0.00 0.02 0.01 0.00 0.00 0.00 0.00 0.00 0.00 0.00 0.00
0.00 0.00 0.00 0.00 0.00 0.00 0.00 0.00 0.00 0.00 0.00 0.00 0.00 0.00 0.00 0.00 0.00 0.00 0.00 0.00 0.00 0.00 0.00 0.00 0.00 0.00 0.00 0.00 0.00 0.00 0.00 0.00 0.00 0.00 0.00 0.00 0.00 0.02 0.01 0.00 0.00 0.00 0.00 0.00 0.00 0.00 0.00
0.00 0.00 0.00 0.00 0.00 0.00 0.00 0.00 0.00 0.00 0.00 0.00 0.00 0.00 0.00 0.00 0.00 0.00 0.00 0.00 0.00 0.00 0.00 0.00 0.00 0.00 0.00 0.00 0.00 0.00 0.00 0.00 0.00 0.00 0.00 0.00 0.00 0.00 0.02 0.02 0.00 0.00 0.00 0.00 0.00 0.00 0.00
0.00 0.00 0.00 0.00 0.00 0.00 0.00 0.00 0.00 0.00 0.00 0.00 0.00 0.00 0.00 0.00 0.00 0.00 0.00 0.00 0.00 0.00 0.00 0.00 0.00 0.00 0.00 0.00 0.00 0.00 0.00 0.00 0.00 0.00 0.00 0.00 0.00 0.00 0.01 0.02 0.00 0.00 0.00 0.00 0.00 0.00 0.00
0.00 0.00 0.00 0.00 0.00 0.00 0.00 0.00 0.00 0.00 0.00 0.00 0.00 0.00 0.00 0.00 0.00 0.00 0.00 0.00 0.00 0.00 0.00 0.00 0.00 0.00 0.00 0.00 0.00 0.00 0.00 0.00 0.00 0.00 0.00 0.00 0.00 0.00 0.00 0.01 0.01 0.00 0.00 0.01 0.00 0.00 0.00
0.00 0.00 0.00 0.00 0.00 0.00 0.00 0.00 0.00 0.00 0.00 0.00 0.00 0.00 0.00 0.00 0.00 0.00 0.00 0.00 0.00 0.00 0.00 0.00 0.00 0.00 0.00 0.00 0.00 0.00 0.00 0.00 0.00 0.00 0.00 0.00 0.00 0.00 0.00 0.00 0.00 0.00 0.00 0.00 0.00 0.00 0.00
MSLP
1021.92 1021.66 1021.39 1021.09 1020.85 1020.46 1020.20 1019.98 1019.67 1019.33 1019.06 1018.98 1018.98 1018.88 1018.71 1018.52 1018.42 1018.43 1018.40 1018.31 1018.19 1018.05 1017.91 1017.73 1017.59 1017.61 1017.18 1017.73 1018.75 1018.31 1018.07 1017.85 1017.40 1017.28 1017.23 1017.27 1017.57 1017.67 1017.78 1017.72 1017.76 1017.95 1017.84 1017.53 1017.26 1017.25 1017.23
1022.24 1021.95 1021.69 1021.45 1021.18 1020.98 1020.69 1020.44 1020.18 1019.93 1019.64 1019.42 1019.27 1019.14 1019.00 1018.85 1018.73 1018.62 1018.49 1018.35 1018.21 1018.09 1017.94 1017.74 1017.64 1017.56 1017.57 1018.46 1018.56 1018.14 1018.12 1017.99 1017.92 1017.75 1017.84 1017.95 1018.34 1018.13 1018.18 1017.93 1018.08 1018.05 1017.99 1017.56 1017.09 1017.00 1016.97
1022.88 1022.50 1022.10 1021.80 1021.54 1021.24 1020.94 1020.81 1020.60 1020.31 1020.09 1019.87 1019.68 1019.51 1019.34 1019.15 1018.92 1018.69 1018.45 1018.32 1018.21 1018.08 1017.91 1017.84 1017.88 1017.75 1017.99 1018.90 1018.55 1018.32 1018.14 1018.03 1017.91 1018.08 1018.19 1018.35 1018.41 1018.48 1018.29 1018.19 1018.07 1018.07 1018.15 1017.49 1017.02 1016.89 1017.08
1023.41 1023.09 1022.78 1022.46 1022.05 1021.68 1021.28 1020.87 1020.57 1020.44 1020.28 1020.04 1019.81 1019.62 1019.41 1019.20 1019.00 1018.83 1018.67 1018.48 1018.32 1018.19 1018.07 1017.94 1017.86 1017.79 1018.67 1018.44 1018.50 1018.37 1018.19 1018.01 1018.01 1018.07 1018.27 1018.27 1018.36 1018.64 1018.35 1018.24 1018.23 1018.51 1018.62 1018.41 1017.38 1017.23 1017.11
1023.91 1023.60 1023.39 1023.15 1022.73 1022.30 1021.80 1021.36 1020.88 1020.42 1020.09 1019.91 1019.74 1019.58 1019.42 1019.24 1019.02 1018.79 1018.61 1018.50 1018.39 1018.32 1018.14 1017.94 1017.86 1017.87 1018.85 1018.60 1018.61 1018.44 1018.34 1018.46 1018.28 1018.17 1018.19 1018.17 1018.55 1018.65 1018.54 1018.88 1019.13 1019.25 1019.64 1019.33 1018.42 1017.51 1017.49
1024.53 1024.16 1023.83 1023.51 1023.11 1022.71 1022.28 1021.80 1021.26 1020.80 1020.35 1020.02 1019.78 1019.59 1019.40 1019.24 1019.10 1018.89 1018.74 1018.70 1018.54 1018.38 1018.02 1017.93 1017.90 1018.67 1018.94 1018.96 1018.68 1018.52 1018.33 1018.36 1018.52 1018.43 1018.48 1018.61 1018.71 1019.02 1019.33 1019.54 1020.32 1020.63 1020.62 1019.99 1019.50 1018.14 1017.86
1024.93 1024.68 1024.37 1023.96 1023.45 1022.95 1022.50 1022.05 1021.60 1021.07 1020.59 1020.29 1020.04 1019.78 1019.49 1019.27 1019.13 1018.98 1018.83 1018.77 1019.19 1019.26 1018.91 1019.20 1019.17 1019.08 1019.03 1018.97 1018.73 1018.70 1018.53 1018.58 1018.54 1018.65 1018.81 1018.70 1019.24 1019.74 1020.12 1020.14 1020.45 1020.77 1020.86 1020.57 1019.46 1018.61 1017.99
1025.19 1024.86 1024.56 1024.30 1023.89 1023.40 1022.84 1022.24 1021.59 1021.24 1020.97 1020.60 1020.23 1019.87 1019.60 1019.33 1019.27 1019.19 1019.29 1019.65 1020.07 1020.27 1020.12 1019.55 1019.31 1019.25 1019.20 1019.27 1019.24 1019.06 1018.63 1018.92 1018.84 1019.08 1019.04 1019.41 1019.79 1020.09 1020.10 1020.28 1020.61 1020.94 1020.96 1020.47 1019.19 1018.63 1018.90
1025.48 1025.11 1024.66 1024.27 1023.95 1023.62 1023.25 1022.70 1022.00 1021.39 1020.93 1020.63 1020.38 1020.13 1019.85 1019.55 1019.28 1019.32 1019.87 1020.31 1020.23 1020.23 1020.12 1019.93 1019.57 1019.39 1019.48 1019.52 1019.46 1019.39 1019.39 1019.34 1019.39 1019.56 1019.95 1020.08 1020.28 1020.05 1020.08 1020.32 1020.61 1020.58 1020.65 1020.51 1020.44 1019.42 1018.32
1025.73 1025.32 1024.92 1024.53 1024.01 1023.48 1023.08 1022.75 1022.37 1021.93 1021.41 1020.91 1020.36 1019.91 1019.65 1019.57 1019.78 1019.83 1020.38 1020.43 1020.35 1020.38 1020.59 1020.59 1019.77 1019.55 1019.46 1019.37 1019.69 1019.55 1019.55 1019.73 1019.59 1020.02 1020.06 1020.21 1020.13 1020.17 1020.32 1020.54 1020.63 1020.51 1020.15 1020.48 1020.59 1020.53 1019.84
1025.94 1025.54 1025.13 1024.68 1024.29 1023.85 1023.28 1022.67 1022.17 1021.84 1021.58 1021.16 1020.78 1020.26 1019.70 1019.48 1019.77 1020.26 1020.62 1020.31 1020.25 1020.49 1021.41 1020.51 1019.69 1019.25 1019.23 1019.54 1019.68 1019.64 1019.71 1019.48 1020.09 1020.42 1020.75 1020.65 1020.51 1020.60 1020.71 1020.60 1020.71 1020.42 1020.23 1020.51 1020.68 1020.96 1020.66
1026.20 1025.87 1025.50 1025.07 1024.53 1023.93 1023.47 1023.03 1022.46 1021.85 1021.40 1020.98 1020.66 1020.29 1019.65 1019.85 1020.31 1020.65 1020.40 1020.37 1020.57 1020.91 1021.12 1020.43 1019.77 1019.54 1019.41 1019.35 1019.47 1019.44 1019.75 1019.95 1020.38 1020.78 1020.94 1021.00 1020.95 1020.98 1020.78 1020.62 1020.67 1020.55 1020.42 1020.38 1020.82 1021.29 1021.01
1026.50 1026.19 1025.83 1025.34 1024.87 1024.39 1023.70 1023.04 1022.52 1022.16 1021.62 1020.99 1020.59 1020.31 1019.96 1020.08 1020.71 1020.41 1020.37 1020.64 1021.09 1021.69 1021.34 1020.79 1020.17 1019.85 1019.87 1019.74 1019.62 1019.81 1020.12 1020.47 1021.18 1021.75 1021.87 1021.35 1021.21 1021.04 1020.99 1020.92 1020.68 1021.19 1021.44 1021.56 1021.99 1022.00 1021.06
1026.77 1026.47 1026.07 1025.58 1025.03 1024.53 1024.02 1023.39 1022.72 1022.12 1021.57 1021.16 1020.68 1020.45 1020.35 1020.42 1020.42 1020.43 1020.56 1020.72 1021.55 1022.00 1021.55 1020.95 1020.50 1020.19 1020.27 1020.08 1020.07 1020.15 1020.55 1021.16 1021.57 1021.97 1022.52 1022.51 1021.46 1021.23 1021.15 1021.32 1021.58 1021.79 1022.19 1023.14 1023.72 1023.42 1021.84
1027.03 1026.74 1026.42 1025.94 1025.44 1024.89 1024.30 1023.60 1023.01 1022.39 1021.64 1021.00 1020.59 1020.69 1020.69 1020.74 1020.46 1020.50 1020.89 1021.77 1022.39 1022.11 1021.71 1021.38 1020.76 1020.68 1020.54 1020.37 1020.51 1020.52 1020.67 1021.35 1021.81 1022.15 1022.71 1022.80 1022.01 1021.44 1021.39 1021.51 1022.01 1022.09 1022.49 1022.98 1023.66 1023.48 1022.86
1027.29 1027.05 1026.59 1026.28 1025.91 1025.37 1024.72 1024.05 1023.34 1022.57 1021.87 1021.21 1021.17 1021.06 1021.04 1020.64 1020.61 1021.00 1021.35 1022.23 1022.02 1021.62 1021.48 1021.45 1021.32 1020.92 1020.85 1020.67 1020.72 1020.65 1020.63 1021.14 1021.69 1022.13 1022.53 1023.07 1022.97 1021.83 1021.70 1021.82 1021.99 1022.17 1022.65 1023.21 1024.06 1024.32 1023.27
1027.42 1027.20 1026.83 1026.48 1026.26 1025.77 1025.12 1024.51 1023.86 1022.99 1021.89 1020.94 1021.30 1021.63 1021.06 1020.75 1020.97 1021.32 1022.41 1022.33 1021.91 1021.66 1021.55 1021.56 1021.37 1021.16 1021.03 1020.97 1020.85 1020.83 1020.64 1021.31 1021.48 1022.14 1022.51 1022.99 1023.67 1022.98 1022.54 1022.30 1022.03 1022.47 1022.51 1023.04 1023.79 1023.95 1023.46
1027.65 1027.38 1027.10 1026.80 1026.52 1026.07 1025.43 1024.87 1024.28 1023.51 1022.20 1021.19 1021.88 1021.95 1021.01 1021.06 1021.53 1022.06 1022.64 1022.24 1022.05 1021.72 1021.71 1021.75 1021.74 1021.64 1021.49 1021.37 1021.34 1021.19 1021.05 1021.24 1021.60 1022.08 1022.83 1023.56 1024.18 1024.21 1022.94 1022.39 1022.09 1022.03 1022.25 1022.74 1023.65 1023.80 1023.42
1027.75 1027.51 1027.28 1027.03 1026.68 1026.28 1025.74 1025.27 1024.72 1024.15 1023.65 1023.73 1023.45 1022.39 1021.25 1021.35 1022.15 1022.68 1022.28 1021.96 1021.64 1021.60 1021.66 1021.82 1021.79 1021.68 1021.72 1021.87 1021.91 1021.43 1021.43 1021.68 1021.77 1022.28 1022.83 1023.53 1024.69 1024.86 1023.40 1023.21 1022.57 1022.48 1022.52 1022.71 1023.29 1023.57 1023.00
1027.89 1027.62 1027.27 1027.04 1026.76 1026.44 1026.03 1025.60 1024.89 1024.30 1023.81 1023.79 1023.83 1023.42 1022.48 1022.36 1022.80 1022.67 1022.57 1022.04 1021.81 1021.62 1021.56 1021.54 1021.72 1021.84 1022.06 1022.14 1022.11 1021.93 1021.89 1021.98 1022.10 1022.34 1022.80 1023.59 1024.57 1024.91 1024.39 1023.36 1023.33 1023.15 1022.58 1022.58 1023.16 1023.22 1021.84
1027.90 1027.72 1027.46 1027.10 1026.84 1026.64 1026.37 1025.82 1025.16 1024.35 1023.53 1023.57 1024.13 1024.53 1024.43 1024.21 1023.87 1023.48 1023.12 1022.55 1022.10 1021.98 1021.93 1021.87 1021.97 1022.11 1022.33 1022.45 1022.36 1022.19 1022.13 1022.37 1022.63 1022.86 1023.49 1024.21 1024.86 1025.02 1024.47 1023.98 1023.55 1022.81 1022.03 1021.85 1021.97 1021.37 1021.36
1027.70 1027.67 1027.43 1027.19 1027.05 1026.82 1026.61 1026.12 1025.58 1024.78 1023.65 1023.79 1024.72 1024.95 1024.79 1024.73 1023.88 1023.65 1023.19 1022.68 1022.23 1022.01 1022.00 1022.13 1022.44 1022.39 1022.60 1022.81 1022.91 1023.01 1022.99 1022.93 1022.92 1023.25 1023.94 1024.55 1024.97 1025.43 1024.93 1024.13 1023.16 1022.13 1021.08 1020.37 1020.36 1019.91 1019.59
1027.56 1027.67 1027.51 1027.41 1027.19 1027.02 1026.85 1026.57 1026.18 1025.39 1024.29 1024.92 1024.99 1024.93 1025.21 1024.95 1024.42 1024.15 1023.69 1023.08 1022.72 1022.46 1022.20 1022.11 1022.61 1022.83 1022.65 1022.54 1022.60 1022.69 1022.88 1022.90 1022.84 1023.06 1023.74 1024.32 1024.95 1025.45 1023.91 1023.56 1022.57 1021.10 1018.38 1018.49 1018.45 1018.07 1017.91
1027.24 1027.45 1027.56 1027.44 1027.32 1027.11 1027.03 1026.84 1026.52 1026.08 1025.92 1025.95 1025.81 1025.76 1025.90 1025.62 1025.17 1024.53 1023.91 1023.74 1023.33 1023.15 1023.11 1022.69 1022.52 1022.61 1022.55 1022.49 1022.47 1022.41 1022.33 1021.67 1021.67 1021.66 1022.50 1023.23 1024.31 1025.09 1023.86 1023.61 1021.65 1017.89 1016.94 1017.02 1017.12 1017.58 1017.54
1026.86 1027.05 1027.34 1027.49 1027.36 1027.13 1027.09 1026.96 1026.82 1026.54 1026.20 1026.25 1025.94 1026.27 1026.23 1026.07 1025.50 1024.82 1024.42 1024.20 1023.95 1023.70 1023.51 1023.11 1022.74 1022.64 1022.55 1022.87 1023.27 1023.12 1022.54 1022.04 1021.11 1021.19 1021.47 1022.13 1023.52 1023.92 1023.41 1022.40 1019.52 1017.71 1016.39 1016.16 1016.23 1017.57 1017.68
1026.57 1026.83 1027.18 1027.31 1027.39 1027.32 1027.09 1027.01 1026.95 1026.85 1026.58 1026.54 1026.73 1026.57 1026.65 1026.61 1025.66 1025.52 1025.12 1024.90 1024.75 1024.44 1024.23 1023.47 1023.05 1022.78 1022.97 1023.66 1024.40 1024.50 1023.84 1022.53 1022.03 1021.92 1021.96 1022.17 1022.34 1023.08 1022.79 1021.70 1019.60 1017.32 1016.50 1016.09 1016.24 1016.96 1017.34
1026.61 1026.61 1026.99 1027.37 1027.39 1027.25 1027.21 1026.95 1026.92 1026.99 1027.07 1027.07 1027.02 1026.91 1027.43 1027.23 1026.18 1025.72 1025.50 1025.43 1025.16 1025.14 1025.17 1024.46 1024.12 1023.68 1023.57 1024.56 1025.51 1025.31 1024.31 1023.01 1022.75 1022.21 1022.38 1022.55 1022.63 1022.35 1021.66 1020.42 1018.41 1016.98 1016.55 1016.18 1017.07 1017.79 1017.22
1026.56 1026.55 1026.70 1027.27 1027.40 1027.23 1027.32 1027.14 1026.92 1026.88 1026.87 1027.29 1027.39 1027.09 1027.54 1027.66 1026.71 1026.13 1025.93 1025.86 1025.57 1025.52 1025.66 1025.39 1025.18 1024.47 1024.99 1025.64 1025.88 1025.37 1024.59 1023.32 1022.78 1021.93 1021.88 1021.97 1022.08 1021.87 1021.30 1020.07 1018.20 1016.68 1016.84 1017.90 1018.09 1017.47 1017.32
1026.48 1026.41 1026.60 1027.03 1027.28 1027.15 1027.19 1027.26 1027.15 1026.84 1026.99 1026.92 1027.72 1027.29 1027.51 1028.06 1027.12 1026.16 1025.93 1025.64 1025.37 1025.50 1025.77 1025.72 1025.51 1025.21 1025.05 1025.62 1025.80 1025.47 1025.12 1024.20 1023.56 1022.81 1021.59 1021.33 1020.67 1020.53 1020.07 1018.47 1017.22 1017.01 1017.46 1017.49 1017.22 1017.41 1017.51
Thickness
5614 5609 5605 5601 5595 5591 5587 5583 5582 5585 5584 5584 5584 5585 5588 5592 5597 5601 5607 5613 5621 5629 5638 5646 5654 5660 5669 5662 5657 5669 5674 5679 5684 5688 5688 5688 5683 5681 5679 5682 5682 5677 5680 5683 5683 5679 5678
5619 5615 5611 5609 5605 5600 5597 5594 5592 5591 5593 5594 5596 5598 5601 5604 5607 5612 5617 5624 5631 5638 5646 5653 5659 5664 5668 5655 5666 5672 5674 5678 5681 5684 5682 5682 5677 5680 5675 5680 5675 5677 5676 5676 5680 5679 5678
5623 5620 5618 5614 5613 5611 5608 5605 5603 5602 5601 5604 5607 5609 5612 5616 5620 5625 5629 5635 5640 5646 5652 5657 5661 5666 5663 5657 5668 5671 5675 5678 5681 5679 5677 5678 5678 5675 5677 5676 5679 5677 5669 5674 5681 5680 5675
5627 5624 5621 5619 5617 5617 5617 5617 5616 5614 5614 5614 5616 5620 5624 5627 5631 5634 5638 5642 5647 5652 5657 5661 5665 5670 5656 5668 5669 5671 5674 5677 5678 5680 5678 5679 5678 5673 5676 5676 5675 5668 5664 5650 5676 5678 5675
5629 5628 5626 5623 5621 5621 5622 5623 5625 5627 5628 5628 5628 5630 5632 5635 5639 5644 5647 5650 5654 5657 5661 5665 5668 5668 5655 5667 5666 5671 5674 5670 5674 5677 5678 5678 5673 5671 5672 5663 5655 5653 5643 5651 5652 5669 5665
5628 5628 5629 5627 5627 5627 5627 5627 5630 5632 5635 5638 5639 5640 5642 5644 5646 5649 5652 5654 5657 5661 5665 5667 5670 5662 5661 5660 5667 5670 5674 5674 5670 5671 5669 5668 5665 5658 5653 5646 5623 5635 5634 5640 5636 5656 5656
5628 5628 5628 5629 5631 5632 5633 5634 5635 5637 5640 5642 5644 5646 5649 5651 5653 5654 5656 5656 5653 5653 5658 5653 5655 5657 5661 5664 5668 5667 5671 5668 5668 5666 5659 5666 5650 5645 5647 5648 5646 5640 5634 5628 5640 5649 5647
5628 5629 5630 5630 5632 5634 5636 5639 5642 5643 5644 5646 5649 5651 5653 5655 5656 5657 5657 5653 5650 5652 5647 5658 5659 5659 5662 5661 5657 5661 5667 5661 5662 5656 5659 5649 5647 5647 5648 5646 5640 5633 5626 5624 5642 5649 5636
5627 5628 5631 5632 5634 5635 5637 5640 5644 5648 5651 5652 5653 5654 5656 5658 5659 5659 5654 5652 5654 5654 5652 5654 5657 5657 5656 5657 5654 5654 5658 5656 5654 5651 5645 5640 5643 5648 5644 5637 5633 5631 5626 5629 5623 5630 5634
5627 5628 5630 5632 5634 5637 5640 5641 5643 5646 5651 5653 5657 5659 5661 5661 5659 5658 5652 5653 5654 5654 5629 5646 5653 5654 5656 5657 5650 5656 5654 5651 5652 5642 5641 5641 5644 5640 5634 5631 5632 5621 5634 5627 5619 5611 5608
5626 5627 5629 5631 5634 5636 5639 5643 5646 5647 5649 5652 5656 5659 5662 5663 5659 5654 5653 5654 5655 5651 5609 5650 5651 5658 5656 5650 5650 5649 5650 5649 5638 5635 5633 5637 5632 5626 5624 5627 5625 5621 5623 5616 5612 5604 5602
5623 5625 5626 5628 5631 5635 5638 5640 5643 5647 5650 5653 5655 5657 5661 5660 5657 5654 5654 5653 5650 5626 5614 5640 5647 5646 5646 5648 5646 5647 5643 5641 5637 5630 5629 5624 5624 5620 5621 5618 5616 5617 5613 5613 5604 5594 5580
5618 5620 5622 5625 5627 5631 5635 5639 5642 5644 5647 5651 5654 5655 5657 5656 5650 5653 5653 5649 5623 5608 5639 5634 5636 5639 5635 5636 5638 5636 5633 5625 5615 5607 5608 5619 5617 5616 5614 5607 5611 5599 5591 5578 5586 5562 5582
5611 5614 5616 5619 5623 5627 5630 5634 5638 5642 5646 5648 5651 5651 5651 5649 5649 5649 5646 5640 5610 5633 5626 5634 5633 5632 5626 5629 5629 5629 5623 5613 5614 5611 5589 5577 5598 5610 5608 5602 5593 5587 5584 5547 5559 5551 5559
5604 5606 5608 5611 5615 5619 5623 5628 5632 5635 5641 5645 5648 5647 5646 5645 5644 5644 5638 5597 5608 5619 5623 5617 5621 5621 5620 5622 5617 5615 5615 5603 5602 5599 5592 5581 5596 5601 5598 5593 5585 5584 5555 5572 5553 5552 5526
5596 5597 5600 5603 5605 5609 5614 5619 5625 5631 5635 5640 5638 5639 5638 5640 5639 5633 5619 5610 5617 5621 5617 5614 5608 5617 5608 5610 5610 5607 5607 5605 5596 5594 5589 5584 5565 5593 5588 5583 5579 5575 5569 5546 5520 5525 5549
5588 5590 5592 5595 5596 5599 5604 5609 5614 5621 5630 5637 5634 5629 5633 5634 5631 5623 5594 5603 5615 5611 5609 5605 5604 5603 5602 5600 5603 5599 5604 5592 5593 5584 5582 5577 5557 5570 5578 5567 5565 5554 5553 5552 5530 5526 5512
5577 5581 5583 5585 5587 5590 5595 5599 5603 5608 5619 5627 5620 5617 5627 5625 5616 5602 5600 5608 5603 5606 5601 5598 5594 5592 5591 5590 5587 5590 5593 5587 5582 5579 5567 5561 5538 5519 5559 5561 5558 5559 5557 5543 5507 5531 5513
5567 5570 5573 5576 5579 5581 5584 5588 5592 5596 5600 5598 5599 5605 5617 5614 5592 5594 5603 5603 5601 5598 5593 5589 5586 5587 5584 5578 5572 5579 5579 5572 5571 5566 5555 5551 5514 5494 5542 5543 5548 5546 5547 5543 5517 5507 5504
5556 5559 5562 5565 5569 5571 5574 5577 5582 5587 5590 5589 5588 5584 5593 5592 5587 5591 5587 5591 5589 5589 5587 5586 5581 5578 5573 5569 5566 5565 5567 5559 5559 5557 5554 5542 5516 5522 5521 5534 5521 5522 5531 5532 5517 5503 5512
5545 5548 5551 5554 5556 5559 5562 5566 5571 5576 5583 5581 5575 5573 5569 5564 5573 5574 5576 5576 5577 5574 5574 5573 5569 5565 5562 5558 5557 5557 5558 5552 5546 5545 5535 5523 5494 5507 5519 5523 5519 5517 5524 5528 5512 5518 5504
5535 5535 5539 5542 5544 5547 5549 5552 5557 5562 5570 5566 5556 5554 5554 5553 5565 5566 5563 5565 5567 5566 5566 5561 5556 5555 5553 5546 5547 5541 5539 5540 5535 5527 5511 5505 5485 5466 5452 5506 5507 5508 5521 5520 5516 5518 5515
5523 5524 5526 5528 5531 5533 5535 5537 5540 5546 5554 5546 5544 5545 5541 5543 5550 5551 5549 5556 5554 5556 5555 5553 5543 5536 5537 5539 5537 5531 5525 5525 5523 5520 5502 5496 5485 5479 5503 5498 5487 5483 5526 5521 5519 5516 5515
5512 5512 5511 5514 5516 5519 5520 5521 5524 5527 5528 5528 5528 5527 5524 5526 5531 5537 5540 5540 5542 5539 5534 5537 5534 5529 5530 5528 5525 5522 5516 5525 5523 5521 5511 5491 5477 5469 5486 5475 5455 5521 5527 5519 5516 5502 5496
5500 5499 5497 5498 5500 5504 5505 5505 5506 5508 5512 5513 5516 5511 5510 5508 5516 5519 5524 5522 5518 5517 5518 5520 5520 5519 5515 5513 5497 5493 5495 5504 5517 5503 5502 5497 5474 5470 5460 5447 5491 5516 5514 5515 5504 5479 5479
5486 5485 5483 5484 5484 5486 5489 5490 5490 5491 5493 5495 5493 5493 5495 5494 5496 5503 5500 5500 5495 5494 5492 5503 5504 5502 5498 5484 5475 5467 5464 5494 5489 5486 5476 5472 5466 5464 5451 5454 5459 5498 5493 5493 5485 5458 5462
5467 5471 5469 5466 5468 5471 5472 5474 5475 5474 5472 5475 5476 5476 5469 5471 5477 5483 5478 5479 5481 5476 5471 5475 5478 5475 5478 5454 5440 5438 5455 5476 5462 5473 5458 5425 5425 5442 5454 5453 5455 5471 5468 5467 5446 5438 5442
5450 5453 5455 5450 5450 5454 5453 5455 5458 5459 5460 5457 5455 5458 5453 5450 5453 5462 5460 5457 5454 5450 5447 5448 5444 5447 5436 5430 5421 5430 5423 5448 5449 5460 5441 5440 5417 5408 5421 5428 5438 5460 5448 5420 5417 5424 5423
5433 5437 5437 5435 5435 5437 5438 5438 5438 5442 5441 5443 5437 5440 5438 5433 5436 5446 5443 5441 5440 5434 5430 5426 5427 5425 5422 5400 5395 5395 5416 5391 5413 5409 5440 5425 5431 5425 5420 5422 5437 5433 5425 5420 5414 5408 5400